Regional Weather Roundup
Issued by NWS Goodland, KS

Home | Current Version | Previous Version | Graphics & Text | Print | Product List | Glossary On
Versions: 1 2 3 4 5 6 7 8 9 10 11 12 13 14 15 16 17 18 19 20 21 22 23 24 25 26 27 28 29 30 31 32 33 34 35 36 37 38 39 40 41 42 43 44 45 46 47 48 49 50
000
ASUS43 KGLD 241608
RWRGLD

GOODLAND FORECAST AREA HOURLY WEATHER ROUNDUP
NATIONAL WEATHER SERVICE GOODLAND KS
1000 AM MDT WED MAY 24 2017

...OFFICIAL OBSERVATIONS...

CITY           SKY/WX    TMP DP  RH WIND       PRES   REMARKS
GOODLAND KS    FAIR      57  40  52 VRB7      29.82F
HILL CITY KS   FAIR      57  39  51 NW6       29.84F
IMPERIAL NEB   FAIR      57  38  48 S7        29.80F
MCCOOK NEB     FAIR      56  39  53 SW5       29.82F
AKRON CO       FAIR      62  39  42 S10       29.79F
BURLINGTON CO  FAIR      60  42  51 S8        29.82F
LIMON CO       FAIR      66  34  30 VRB5      29.83F
$$

...UNOFFICIAL OBSERVATIONS...

CITY           SKY/WX    TMP DP  RH WIND       PRES   REMARKS
LENORA KS        N/A     56  32  40 MISG        N/A
NORTON KS      SUNNY     55  37  50 NW6       29.82F
SHARON SPRINGS   N/A     59  44  58 SE7         N/A
TRENTON NEB      N/A     58  32  37 CALM        N/A
KIT CARSON CO    N/A     59  41  51 MISG        N/A
YUMA CO        FAIR      57  30  35 S10       29.78F
$$




USA.gov is the U.S. government's official web portal to all federal, state and local government web resources and services.